{"data":{"norad_id":67528,"intl_designator":"2026-013G","name":"HULIANWANG DIGUI-152","alt_names":[],"object_type":"PAYLOAD","status":"ACTIVE","operator":null,"country":"PRC","launch_date":"2026-01-19","launch_site_code":"WSC","launch_vehicle":null,"mission":null,"orbit_class":"UNKNOWN","rcs_meters":null,"size_class":null,"mass_kg":null,"dimensions":null,"purposes":[],"wikipedia_slug":null,"has_3d_model":false,"image_url":null,"decayed_at":null,"tle_current":{"epoch":"2026-09-20T14:04:30.009216Z","epoch_age_seconds":89218,"freshness":"FRESH","line1":"1 67528U 26013G   26263.58645844 -.00000092  00000+0  68287-4 0  9999","line2":"2 67528  50.0063  13.2462 0000706 106.1256 253.9694 13.29331270 32741","mean_motion":13.2933127,"eccentricity":7.06e-5,"inclination_deg":50.0063,"raan_deg":13.2462,"arg_perigee_deg":106.1256,"mean_anomaly_deg":253.9694,"bstar":6.8287e-5,"rev_number":3274,"period_min":108.32514306235,"perigee_km":1148.7552412008,"apogee_km":1149.8181134241,"semimajor_km":7527.4236773125,"source":"CELESTRAK","updated_at":"2026-09-21T09:00:16.681407Z"}}}